Theta_e
345 346 346 346 347 345 344 342 340 341 345 347 346 344 342 341 342 343 343 342 340 340 341 341 342 345 346 345 346 346 345 345 344 342 342 342 341 341 342 341 340 339 339 340 338 340 341 338 338 340 340 341 343 342 342 343 344 336 339 338 338 339
343 344 346 345 344 344 342 341 340 341 345 347 345 342 341 340 343 342 342 341 339 338 341 340 342 344 345 346 345 346 345 344 343 342 342 342 341 341 341 340 340 341 339 340 342 338 338 340 342 340 341 341 340 339 341 343 341 335 337 337 339 341
344 344 343 344 344 344 342 345 344 345 344 345 343 341 343 344 342 341 342 340 340 340 340 340 344 345 345 345 345 346 345 344 343 343 342 341 342 342 341 342 342 341 341 342 339 336 335 333 335 340 341 340 335 338 340 342 340 340 337 337 338 344
345 346 344 344 343 344 342 342 343 345 344 341 341 340 341 342 342 341 341 340 340 338 339 339 343 344 344 344 345 345 345 344 343 343 343 342 342 342 341 342 343 342 342 339 334 335 335 334 333 334 335 336 337 338 340 341 337 337 337 339 339 344
344 344 345 344 343 343 343 343 344 344 342 342 341 341 343 344 342 342 342 341 340 337 339 339 343 345 343 344 343 343 343 343 343 342 343 341 341 339 341 340 339 341 337 334 332 333 335 339 336 334 335 336 337 344 343 341 339 338 337 337 340 343
344 344 342 344 343 342 344 343 342 343 342 342 340 341 342 342 343 343 342 341 339 340 340 340 342 343 344 343 341 341 341 341 341 340 342 342 341 341 340 339 338 336 335 335 336 337 337 336 336 335 335 336 341 341 341 336 337 342 336 338 341 344
342 342 340 341 344 343 342 343 344 343 341 341 342 340 339 342 341 341 341 340 341 337 337 335 342 343 344 345 344 345 346 346 344 344 342 343 343 341 340 339 337 334 335 334 336 336 335 336 335 334 334 334 336 338 338 334 341 342 338 337 342 344
341 339 338 341 343 343 340 340 343 342 342 343 342 341 342 341 340 339 341 341 341 341 337 339 338 342 342 344 342 345 344 344 343 344 345 343 340 340 336 336 335 334 337 336 334 333 333 333 331 332 335 335 334 336 336 336 340 345 339 336 340 343
339 339 338 338 341 344 343 341 342 342 342 343 341 341 340 338 339 339 338 338 340 341 339 336 340 340 341 340 341 341 342 342 343 342 340 338 341 337 335 336 337 337 335 335 335 334 337 334 333 333 330 333 332 332 333 334 339 341 342 335 336 341
338 338 340 341 342 343 342 340 342 343 343 343 341 341 339 339 338 338 337 338 340 338 339 335 337 340 338 338 340 340 339 339 340 341 341 339 338 337 337 336 338 338 336 336 335 337 337 333 333 334 329 330 333 331 332 334 337 341 344 342 337 341
341 341 340 340 342 341 342 342 343 342 342 342 341 339 339 338 339 337 338 338 337 341 342 340 339 338 339 337 336 335 337 339 340 340 341 341 340 338 338 338 336 337 336 334 336 338 337 333 334 335 330 332 333 331 330 333 335 337 339 343 338 338
341 342 341 339 342 340 340 341 342 342 343 342 339 338 339 339 337 337 335 335 340 342 343 342 338 340 336 335 335 336 340 339 340 342 341 340 341 339 339 337 339 338 337 336 335 337 337 337 333 334 332 332 333 330 332 333 335 335 337 342 340 336
339 342 342 341 340 341 341 341 342 342 339 341 341 338 337 336 337 336 337 338 338 341 339 337 336 337 336 335 335 335 336 338 339 341 341 341 339 338 339 339 339 338 337 337 337 336 335 338 336 337 337 335 333 332 332 330 332 336 339 340 340 341
337 335 338 338 336 335 337 340 341 343 342 339 339 337 335 337 338 338 338 340 342 342 342 341 339 338 338 335 335 337 337 337 339 341 340 342 339 339 339 338 338 337 337 335 334 334 335 333 335 335 332 334 334 333 334 331 334 336 336 338 338 337
337 336 338 338 336 336 335 336 339 338 342 341 338 334 334 338 339 340 340 342 341 341 341 339 340 339 337 338 338 336 337 337 339 339 339 340 339 339 338 338 338 335 337 335 336 336 335 332 334 333 333 332 339 336 332 334 336 335 336 337 338 336
335 336 337 335 336 336 336 336 337 339 341 338 339 337 340 339 339 341 341 341 342 342 341 340 340 340 340 337 336 336 335 338 338 338 339 340 340 338 339 338 338 337 334 334 335 335 335 334 333 333 336 334 335 334 335 334 334 334 335 337 335 334
336 337 338 339 336 333 338 337 335 335 338 336 336 339 340 343 341 340 340 340 341 342 342 340 340 340 340 337 336 336 337 338 339 338 339 338 337 338 338 337 335 336 337 334 333 333 334 333 334 333 334 334 332 337 335 335 337 336 335 333 334 334
336 336 336 336 336 335 334 336 336 337 335 336 336 339 344 340 339 341 340 339 340 341 341 339 340 340 340 337 338 337 338 339 338 339 339 337 336 339 337 335 334 337 336 334 333 333 333 334 335 333 332 332 331 335 338 337 335 338 332 333 335 335
334 333 334 335 335 334 334 333 333 333 337 337 338 340 341 338 338 341 339 340 340 341 340 340 339 340 339 337 337 336 337 337 336 337 336 334 336 336 336 336 335 335 335 335 334 335 334 334 333 333 332 333 334 333 335 337 337 333 331 331 335 335
336 338 339 339 337 333 331 329 328 332 334 335 336 336 338 335 336 334 336 337 337 341 339 340 338 339 340 338 337 336 336 336 336 335 335 334 334 335 335 335 335 335 333 334 335 334 335 334 332 330 329 329 331 332 335 334 334 332 331 331 332 333
337 337 334 334 336 334 332 332 335 334 334 334 333 338 336 335 333 336 334 333 335 337 338 338 337 338 339 336 336 338 337 336 336 335 336 336 336 336 336 335 334 333 332 331 331 334 336 334 329 326 327 329 332 335 335 334 332 330 329 332 333 332
338 337 335 336 338 337 337 338 335 333 332 331 332 332 329 332 332 333 335 336 336 334 336 336 337 338 336 335 334 334 334 334 336 336 337 337 336 335 335 335 334 331 332 330 330 333 335 332 325 324 321 324 327 331 331 332 331 330 329 330 332 331
336 337 337 335 338 336 336 337 341 335 336 331 336 334 329 331 333 332 336 334 336 337 334 333 335 335 334 334 334 335 334 334 335 336 335 334 336 336 337 336 334 331 330 331 329 333 334 333 326 327 326 323 319 318 325 328 330 329 329 329 332 331
335 336 334 334 335 336 336 335 343 338 338 334 329 331 332 332 331 331 331 333 337 339 337 332 328 328 329 334 336 333 332 334 334 337 334 333 334 331 333 334 335 332 332 325 326 330 333 333 331 327 319 320 319 319 315 318 323 326 330 331 329 329
335 334 334 333 335 336 337 341 336 334 334 332 332 329 327 328 329 328 330 334 335 334 329 327 328 329 329 331 333 335 334 333 333 335 335 330 329 330 329 330 331 331 331 328 326 328 330 333 331 332 325 321 318 316 316 320 321 323 326 327 328 329
334 334 334 334 335 334 337 336 332 330 328 330 328 330 327 323 325 328 326 333 331 331 335 335 329 329 329 330 331 334 334 330 333 332 333 333 333 331 329 328 329 330 328 330 329 326 327 330 333 331 332 330 326 319 317 321 321 313 323 325 327 329
334 334 335 334 335 335 337 334 333 331 331 329 329 330 332 333 328 329 334 331 331 333 330 331 330 329 329 329 332 333 335 333 329 331 331 330 329 329 327 328 330 329 328 331 330 325 325 326 330 330 331 332 330 329 328 323 317 318 314 320 325 326
335 335 335 335 335 338 337 334 334 333 332 333 331 328 331 330 332 330 330 331 331 332 329 330 329 326 327 329 332 332 332 330 332 328 328 326 327 328 329 330 331 331 331 330 329 327 327 330 326 326 328 326 329 329 329 327 325 320 318 314 317 323
334 334 334 334 336 338 337 336 336 336 335 332 329 329 327 328 329 329 329 332 331 328 329 327 324 326 325 325 326 328 329 327 325 325 324 326 327 327 328 328 328 329 328 328 329 330 328 327 327 326 327 326 326 326 325 325 326 324 319 315 315 317
332 333 333 335 334 329 326 327 330 335 333 328 329 327 328 328 328 332 327 326 328 328 328 328 327 327 327 325 327 327 327 329 329 326 325 323 323 325 327 325 326 327 328 327 328 328 327 327 328 329 327 326 325 324 323 324 323 322 322 320 315 316
331 333 332 331 330 328 327 326 325 329 332 328 328 329 326 326 328 327 325 326 327 327 326 326 327 325 325 325 326 328 327 324 327 328 325 324 325 324 326 327 327 327 326 327 326 326 326 326 326 322 322 323 322 322 320 321 320 322 321 317 317 316
330 330 330 329 327 326 327 326 326 329 330 330 329 327 325 324 325 324 326 326 326 326 325 327 327 327 326 326 326 324 325 326 327 328 325 327 326 323 323 324 324 324 323 324 324 324 324 322 322 323 320 320 320 321 320 319 323 324 322 320 318 317
328 328 328 328 327 326 326 326 326 329 331 331 329 328 327 325 326 325 326 324 324 323 324 323 324 324 327 328 328 325 324 324 324 325 327 327 325 323 323 324 323 322 323 322 322 323 321 321 321 320 320 318 317 316 317 319 324 322 325 323 320 316
328 328 327 328 328 327 327 327 329 331 330 330 330 329 327 326 327 327 326 324 324 323 323 323 324 326 326 324 325 326 326 325 325 325 325 325 323 324 325 319 320 321 320 320 321 321 321 321 321 321 321 316 315 316 319 320 316 323 321 321 316 315
331 329 328 329 328 328 329 329 332 331 330 330 329 329 328 328 328 326 325 325 325 325 322 322 325 326 324 324 325 326 325 325 325 325 325 325 324 323 322 318 319 320 320 321 320 319 319 320 320 320 320 319 318 316 317 316 316 318 321 320 321 318
330 328 328 328 328 329 329 330 331 329 330 331 326 328 328 328 329 328 326 326 326 325 324 325 325 324 326 326 325 325 324 324 325 326 326 325 323 321 323 322 321 321 318 320 320 320 319 320 321 321 320 319 317 316 317 316 316 317 316 324 320 322
329 330 329 328 329 328 331 333 330 329 330 330 328 327 326 329 328 328 329 327 326 325 326 325 325 327 325 325 327 326 325 325 324 323 324 324 324 324 322 320 320 320 319 320 320 319 320 319 319 319 319 318 316 317 318 318 318 318 319 318 322 320
Wind_Speed
10 9 7 7 6 6 8 9 6 6 8 10 13 16 17 13 10 9 11 11 7 5 3 4 3 4 8 6 5 7 8 9 9 9 9 8 7 7 7 6 5 4 3 3 3 5 5 5 6 6 6 6 7 4 5 6 2 6 9 8 8 8
7 6 8 7 5 6 6 6 6 6 6 9 13 16 12 8 10 7 10 8 4 3 3 1 1 4 3 7 8 8 8 9 9 10 9 8 7 6 5 5 4 4 3 4 6 3 4 6 7 6 6 6 3 4 6 6 3 4 10 8 7 9
9 10 10 8 6 7 7 5 7 6 6 7 9 9 6 8 6 6 7 5 4 4 3 3 0 5 4 7 8 9 9 9 9 9 8 7 6 5 4 4 4 5 5 6 5 4 5 4 4 8 6 3 3 5 5 2 2 4 8 8 7 12
8 10 10 7 7 7 7 4 4 5 7 5 7 6 5 4 6 7 7 5 3 4 2 1 2 7 7 5 5 6 8 9 8 9 9 5 5 4 4 5 6 6 4 4 5 6 7 5 3 3 4 5 5 6 7 3 4 7 7 9 8 13
7 8 8 8 7 8 7 6 6 6 6 6 5 5 4 4 6 6 5 4 5 2 4 2 3 2 3 4 4 4 4 3 3 3 7 3 4 3 4 4 3 4 4 5 6 7 5 1 5 4 5 5 6 1 1 3 5 5 6 7 8 13
5 8 6 5 6 8 8 5 6 5 6 5 7 6 4 4 4 5 4 5 5 3 3 3 3 2 2 3 4 3 4 4 3 3 5 2 3 3 3 3 3 3 4 6 6 4 4 5 4 5 4 4 1 0 2 5 5 7 7 6 8 13
7 6 8 4 5 6 5 5 5 5 5 3 5 6 3 4 3 4 5 5 5 5 2 2 1 1 1 1 0 1 1 1 1 1 3 1 1 1 2 6 9 9 9 11 12 9 6 3 4 1 1 2 2 2 4 7 2 3 6 6 7 12
7 7 4 5 5 7 6 4 3 5 4 6 7 5 5 3 2 4 4 4 4 5 4 2 2 1 1 0 0 1 1 1 1 1 1 2 2 1 6 2 5 4 2 1 3 8 11 16 7 4 3 2 3 3 9 3 2 2 5 6 6 9
4 12 9 6 4 5 7 7 5 5 4 7 5 5 5 3 3 3 5 3 2 2 5 1 1 3 2 1 1 0 1 1 2 3 3 2 1 1 1 1 1 1 1 2 4 3 3 3 14 3 4 2 2 2 8 5 2 1 4 6 6 7
9 9 8 7 4 6 7 7 6 6 5 6 5 6 6 3 4 2 4 1 1 2 3 6 4 3 3 2 1 0 2 1 1 2 1 1 3 1 1 0 1 1 1 2 1 2 1 2 5 10 9 4 1 2 7 7 4 3 2 3 6 7
9 8 6 5 4 4 5 6 5 4 4 7 6 6 5 2 1 3 4 1 1 4 3 6 5 4 3 3 1 2 1 0 1 1 0 0 3 1 1 1 1 1 1 2 2 2 1 2 3 2 6 11 11 2 3 8 4 4 3 1 6 5
7 6 5 6 3 4 5 4 4 4 5 7 7 5 4 4 1 4 5 3 4 1 2 5 2 1 3 2 3 3 0 1 1 1 1 0 1 1 0 1 1 2 2 2 1 3 2 2 4 4 3 6 9 8 1 5 4 4 4 2 5 5
6 4 4 5 4 5 4 2 3 5 5 6 6 4 3 3 2 2 6 10 8 7 6 5 7 6 6 2 2 2 2 2 1 1 0 1 1 1 1 1 1 3 1 0 0 0 3 2 1 3 4 5 4 8 9 2 5 3 5 2 4 5
5 6 5 7 8 6 6 1 4 2 5 7 5 5 5 4 6 8 9 8 6 6 4 6 6 5 4 4 3 2 1 1 0 0 1 0 0 1 0 0 1 1 1 1 1 1 2 2 1 2 5 8 4 3 6 11 5 2 4 3 4 5
9 9 6 6 5 5 5 5 3 4 1 6 5 6 5 8 8 6 5 5 5 4 5 4 5 5 5 4 4 4 2 1 1 1 1 1 1 1 2 0 1 1 1 1 0 1 1 1 2 3 2 3 4 4 5 6 10 3 2 3 6 9
9 9 7 7 5 5 7 4 4 3 3 1 5 7 9 7 6 5 5 4 4 3 5 5 4 4 4 3 4 4 3 3 3 2 3 1 2 1 0 0 1 1 1 1 1 2 1 1 1 1 1 1 0 5 4 7 5 6 9 3 7 9
11 10 10 10 8 7 6 5 1 2 5 2 7 4 3 3 4 5 4 5 5 4 3 5 5 4 2 3 4 4 3 4 3 2 2 1 2 1 0 1 1 2 2 1 1 2 1 0 0 0 0 2 4 3 2 6 4 5 6 7 7 6
8 7 7 6 5 6 6 5 3 1 8 8 6 3 2 3 5 3 3 5 5 5 4 6 4 4 3 4 3 2 3 2 2 1 1 1 1 1 2 1 1 1 1 2 2 1 1 1 0 1 2 5 4 3 0 3 2 3 7 4 4 4
9 8 7 7 6 6 6 6 5 7 10 7 4 4 5 5 5 4 5 5 5 4 3 5 6 4 4 3 3 4 2 2 1 1 0 0 1 0 2 1 0 3 1 1 1 2 2 0 2 1 2 5 1 1 2 1 4 8 9 5 1 5
9 7 6 5 5 6 5 4 6 11 5 3 3 4 4 4 5 6 6 5 6 2 4 3 5 4 2 3 3 4 3 2 2 2 2 3 2 1 0 1 0 1 2 1 0 2 0 2 1 2 3 2 2 3 2 2 3 9 10 5 3 3
7 7 5 4 3 5 3 4 5 3 4 4 4 2 5 5 5 4 5 8 6 5 4 5 6 4 3 5 3 3 2 2 2 2 2 0 1 1 1 1 2 2 1 0 0 0 1 1 1 2 0 0 0 3 2 3 5 9 11 4 2 2
5 5 6 4 4 3 2 1 2 3 4 5 4 4 6 4 5 5 6 5 5 6 7 7 5 5 5 7 5 4 3 3 2 2 2 1 1 2 2 2 3 2 1 1 1 1 1 1 2 2 3 2 2 1 1 2 4 8 9 5 2 2
5 4 4 3 2 2 1 3 2 4 2 4 4 5 5 5 5 6 5 5 3 3 5 5 5 5 4 3 4 4 4 4 4 3 3 2 1 2 0 0 2 1 2 2 2 2 0 2 2 2 2 2 2 2 2 2 6 7 7 4 2 2
7 6 4 3 2 1 1 6 1 5 6 6 6 6 5 4 4 5 5 4 3 2 3 3 6 7 5 3 2 3 4 3 2 2 2 1 1 2 4 2 2 4 2 3 1 1 2 1 1 3 2 0 0 1 0 1 5 4 3 5 3 3
7 7 5 5 4 3 2 1 7 8 6 6 4 4 4 4 4 5 4 3 2 3 4 4 5 6 5 4 4 3 3 4 3 2 1 4 3 4 3 2 4 2 3 1 3 0 1 0 1 0 2 1 1 1 0 1 6 2 1 4 4 2
7 6 6 5 4 4 1 4 6 6 5 2 3 3 4 5 5 4 4 3 4 3 2 3 5 6 5 4 4 2 2 4 3 3 2 2 2 3 4 4 4 3 5 4 1 2 1 2 2 1 1 2 1 0 2 1 2 3 4 4 1 2
6 4 4 3 5 1 1 5 6 5 2 3 3 3 3 4 6 5 3 5 4 3 4 4 4 4 4 3 3 2 1 2 5 3 3 4 3 5 5 3 3 4 4 3 3 4 1 2 1 1 3 2 1 2 2 2 2 5 4 1 3 3
6 5 4 5 3 0 3 5 4 3 3 3 3 4 3 4 4 5 5 4 3 3 4 4 4 4 3 3 2 2 2 4 1 6 3 5 5 5 5 4 3 3 4 4 4 5 3 2 3 0 1 2 1 2 2 5 4 1 2 5 2 3
8 7 6 5 3 1 3 4 3 2 2 4 5 3 3 3 4 5 4 3 3 4 4 5 4 4 4 4 3 3 3 3 4 4 6 5 4 5 4 3 3 2 4 3 3 3 3 3 2 1 1 2 3 3 3 2 2 2 4 5 3 2
11 9 7 6 5 7 8 7 4 2 3 5 3 3 3 4 4 3 5 5 5 4 4 4 4 4 4 4 4 4 3 3 3 3 4 5 5 4 3 4 4 3 3 4 3 3 3 4 3 4 3 3 2 2 3 2 2 3 1 3 7 4
10 9 8 7 7 7 5 7 4 5 3 4 4 3 4 4 4 4 4 4 4 4 4 5 4 5 5 4 4 3 3 3 3 4 4 4 3 4 3 3 4 4 4 4 5 5 5 4 3 3 2 1 3 2 2 3 3 2 2 5 6 6
7 8 8 7 8 6 4 6 4 6 4 4 4 4 5 5 5 5 4 4 5 5 4 4 3 4 4 3 3 3 4 4 3 3 4 3 3 4 5 5 5 5 5 5 5 5 4 5 5 4 4 5 5 4 4 4 5 4 5 6 6 7
7 7 7 6 8 8 6 6 6 6 5 4 4 4 4 5 5 5 4 5 5 5 5 5 4 3 3 3 3 3 4 4 4 4 3 3 3 5 4 4 4 5 4 4 4 4 5 4 4 4 3 5 5 5 3 5 3 5 4 6 7 6
8 8 8 7 7 7 6 5 6 5 5 4 4 5 4 4 4 4 5 5 5 5 5 5 4 3 3 4 3 3 3 3 3 3 3 3 4 4 4 5 4 4 4 4 5 4 4 4 4 4 3 6 5 5 4 4 5 3 4 4 5 6
11 10 9 8 7 7 5 4 4 7 6 4 5 5 5 4 4 4 4 4 5 5 6 5 4 4 5 4 4 3 3 3 3 3 3 3 3 4 4 5 4 5 4 3 5 5 5 4 3 3 4 4 4 5 6 6 5 5 5 4 3 5
11 9 8 8 6 6 7 7 5 8 7 5 6 5 5 5 4 5 4 4 5 5 5 5 5 4 3 3 3 4 3 3 3 2 3 3 3 3 3 4 4 4 4 4 5 5 4 3 3 4 4 5 5 4 6 6 5 5 5 1 3 0
8 11 12 9 7 8 7 6 8 8 6 6 6 5 5 4 5 5 4 5 5 5 6 5 5 3 4 4 3 3 3 3 3 4 3 3 3 3 4 4 4 4 4 4 4 4 4 4 4 4 4 5 5 4 4 4 5 5 6 5 3 3
Wind_Direction
130 127 142 125 127 121 107 108 111 130 154 147 132 120 123 156 173 153 139 146 100 85 178 172 141 168 151 151 124 126 141 134 135 133 134 136 142 149 153 154 162 180 215 222 218 241 241 226 216 205 221 249 282 303 278 281 287 89 105 104 110 118
117 147 136 133 149 124 119 141 157 173 176 155 140 128 141 164 160 145 138 121 111 150 210 196 156 155 190 147 143 142 143 140 140 141 140 147 154 163 167 173 185 210 242 256 262 262 237 231 225 224 208 218 262 276 271 272 8 91 101 107 112 127
149 152 139 147 140 129 150 169 160 164 152 148 138 137 155 161 133 131 128 101 137 203 183 175 258 172 193 162 143 146 147 148 145 146 147 155 167 173 187 200 219 234 248 261 265 259 258 215 205 214 225 212 228 245 261 237 299 54 101 110 116 131
162 148 147 138 143 144 160 152 156 155 137 162 154 148 169 150 128 135 132 131 138 220 101 359 263 189 163 128 131 138 154 151 153 151 157 159 173 195 211 226 237 250 257 254 245 245 244 194 198 193 192 222 218 233 221 186 210 115 114 118 126 134
155 148 136 142 142 155 154 163 165 154 153 165 140 142 175 132 130 141 135 128 140 210 117 213 236 180 153 155 149 158 156 162 161 165 163 177 165 191 202 230 228 235 253 245 242 241 254 278 171 195 195 206 237 261 137 198 59 81 90 111 133 137
143 153 144 141 145 155 152 151 151 159 155 172 150 143 151 106 121 141 128 106 123 140 153 214 189 170 153 202 166 160 180 175 175 180 170 230 172 190 196 250 256 248 242 250 259 312 308 262 188 209 193 197 221 148 248 39 107 90 106 117 140 137
155 144 122 154 141 144 135 149 147 156 142 134 111 113 127 129 156 150 134 124 136 147 197 189 141 155 130 259 62 187 102 11 133 80 156 236 308 3 7 23 18 352 346 336 331 318 293 288 310 293 251 178 195 198 94 97 343 90 113 127 134 136
136 97 112 179 153 131 145 140 149 127 171 132 119 140 122 120 181 197 141 133 139 140 160 149 146 173 168 92 356 15 347 175 114 143 43 43 13 51 71 166 186 206 232 290 312 354 349 338 309 299 310 257 153 250 101 132 121 85 118 128 139 146
124 128 166 191 157 136 133 159 145 144 144 144 117 116 113 142 199 213 80 111 154 115 118 39 299 144 70 46 132 233 9 335 61 44 40 45 319 51 138 275 241 259 134 30 10 355 5 17 292 287 290 275 169 165 112 126 135 153 127 141 146 149
145 150 159 163 151 137 140 140 150 149 140 122 95 104 119 178 228 77 81 194 142 115 155 152 223 106 141 159 110 80 97 48 57 91 96 335 63 104 138 197 343 357 68 118 61 307 352 255 324 341 318 280 128 235 122 137 183 132 67 143 133 150
135 144 147 120 129 133 125 130 140 139 112 109 101 110 124 178 193 102 97 68 278 169 214 145 152 144 137 96 248 30 339 85 54 52 115 31 120 154 131 121 146 58 55 37 23 299 233 283 354 278 356 348 324 267 88 118 173 127 145 123 130 149
110 132 117 119 135 132 125 138 142 115 89 104 124 128 143 156 82 72 80 328 272 259 154 84 35 36 95 197 150 151 180 44 67 136 84 324 47 51 101 183 110 99 67 82 338 309 318 39 341 342 346 14 339 328 95 81 154 164 130 124 118 133
125 96 98 135 156 121 99 123 110 98 120 103 114 110 91 134 110 100 179 174 213 192 150 148 178 168 144 220 36 65 69 65 25 66 33 82 62 335 32 283 114 63 123 127 145 304 349 18 37 337 346 342 37 349 327 229 164 134 105 103 75 97
88 62 44 43 37 33 34 316 73 65 112 117 126 136 164 183 175 191 169 183 184 162 169 152 137 111 140 151 167 144 132 146 166 58 59 257 179 175 200 100 92 158 44 101 74 16 336 52 53 45 9 336 5 351 41 -0 332 115 116 127 86 72
113 132 141 104 106 106 87 356 23 27 28 110 130 159 169 190 182 165 157 147 171 153 141 123 110 140 154 157 131 126 142 140 125 136 212 166 236 174 223 214 80 283 130 149 131 87 51 5 30 40 77 293 320 10 72 76 312 309 128 113 107 72
131 127 115 109 104 97 80 44 2 350 332 81 175 197 195 187 152 136 128 133 129 125 125 126 124 117 118 130 120 131 160 172 164 151 227 200 237 205 157 136 17 303 307 7 190 111 87 39 31 8 12 206 35 17 40 81 305 342 352 10 88 97
132 129 128 123 123 118 103 98 53 318 323 291 264 201 168 109 100 110 139 130 121 114 119 112 117 117 109 105 136 160 161 164 173 166 153 184 217 195 175 120 129 343 349 315 345 99 86 25 322 254 91 51 12 51 342 104 246 104 57 55 71 99
101 99 93 94 100 104 96 111 84 57 228 214 188 222 65 102 122 141 131 111 119 129 136 116 123 135 126 128 117 137 157 154 133 175 163 147 279 201 107 118 143 128 35 12 10 10 84 44 294 346 21 52 33 310 184 96 289 88 99 73 103 145
97 97 107 120 125 118 119 97 91 250 210 191 145 119 135 135 113 112 100 105 105 102 115 123 139 146 130 124 146 139 145 139 127 123 118 222 233 318 127 144 180 103 69 72 340 339 73 6 19 19 34 32 2 295 287 175 165 78 87 36 61 142
113 115 115 133 128 112 115 144 180 203 204 125 107 130 151 140 134 113 111 113 109 109 106 118 113 94 118 159 136 132 134 157 146 180 193 207 180 201 195 161 101 82 141 128 91 300 29 76 48 42 38 349 282 262 325 347 71 94 83 116 278 34
119 128 136 130 139 137 149 189 203 150 125 99 117 120 66 54 63 70 115 120 118 121 98 84 96 126 152 97 66 101 132 142 171 218 216 280 116 159 178 180 114 73 31 117 168 166 17 103 70 357 33 346 31 326 28 20 47 81 97 110 188 160
115 127 143 152 139 130 165 208 161 146 124 124 146 105 84 84 86 85 70 79 116 124 127 134 154 156 138 133 151 147 153 182 190 191 202 171 156 192 203 205 137 117 88 2 41 23 144 255 52 44 26 16 31 255 50 50 23 80 98 113 284 118
130 130 83 61 82 118 216 302 274 108 151 140 74 91 107 104 100 93 88 85 65 91 125 136 153 152 127 116 138 152 144 162 178 178 179 178 175 136 98 215 97 117 96 52 345 304 351 18 104 58 54 34 6 342 339 73 67 52 79 124 167 85
143 139 128 147 142 145 211 267 123 76 54 69 86 82 87 88 110 114 98 100 127 172 167 151 126 88 85 107 111 113 109 94 79 52 60 68 188 155 164 163 142 134 136 120 189 68 28 339 36 101 82 162 224 248 137 355 78 39 22 87 119 106
153 147 159 163 168 137 259 133 79 78 74 81 92 103 121 126 90 93 110 102 108 76 68 72 88 108 91 73 56 41 101 97 61 39 118 103 51 347 24 44 77 85 145 154 120 179 49 97 191 319 102 159 180 194 107 128 98 18 84 85 74 87
154 157 157 169 137 110 218 115 94 90 101 103 115 156 107 119 147 129 109 158 136 127 106 53 57 67 97 121 133 145 114 110 134 122 60 65 120 129 77 43 50 29 52 55 137 127 69 17 17 233 236 273 162 137 135 155 173 109 45 42 34 75
143 140 135 126 106 90 148 97 95 101 124 157 169 102 115 90 97 107 100 80 72 66 78 74 70 82 84 68 51 26 21 133 145 114 134 108 73 34 80 62 50 49 54 67 79 105 90 128 255 88 131 245 11 56 26 53 46 110 120 0 12 26
127 115 102 96 110 252 106 96 115 135 184 200 105 111 98 100 97 97 111 119 115 103 108 128 136 129 109 91 97 93 45 359 11 150 120 72 75 58 45 70 63 71 69 54 60 83 110 119 158 157 87 124 80 87 116 109 113 162 111 131 74 340
116 113 104 111 147 71 65 110 107 168 187 85 107 110 115 115 110 129 142 137 104 95 77 84 90 93 108 113 96 68 51 33 21 48 90 93 88 97 89 70 65 64 97 76 68 84 93 90 101 164 160 141 145 135 124 135 125 128 102 112 111 113
133 130 139 137 103 88 77 56 21 320 109 113 126 150 142 124 135 142 100 97 102 105 110 66 57 57 62 76 91 96 67 43 49 68 95 114 120 106 105 109 99 80 80 99 93 96 100 135 158 187 184 164 128 127 124 105 103 95 124 120 139 133
129 131 133 126 123 114 123 121 104 310 161 153 162 150 133 144 138 119 130 135 128 126 94 88 75 72 71 55 47 70 98 84 42 30 67 87 83 95 98 94 104 84 62 65 66 52 37 26 59 38 32 79 122 104 99 121 126 133 122 107 106 105
128 124 130 134 123 130 130 119 141 237 168 159 155 146 160 153 148 146 152 132 117 102 107 110 91 82 83 92 89 73 61 53 43 44 39 35 74 94 96 80 62 65 72 61 66 63 42 37 21 23 29 11 52 61 50 88 137 138 110 116 121 137
156 132 128 145 150 149 150 156 195 201 144 146 147 163 167 157 159 153 142 126 133 126 123 112 115 118 129 103 70 63 68 58 48 32 35 40 100 105 86 85 84 76 60 77 77 76 66 43 31 23 24 25 42 36 49 24 59 121 121 120 133 132
162 140 144 154 152 149 156 192 207 147 137 146 164 171 165 163 157 151 139 141 134 135 126 116 124 118 106 93 80 81 77 91 91 87 70 42 32 48 86 82 69 71 83 76 72 69 75 63 35 19 25 63 36 17 5 47 26 82 94 124 119 129
152 146 156 155 149 148 148 226 221 127 144 170 160 174 169 161 162 133 138 143 131 123 116 130 122 107 94 106 123 109 110 103 99 99 105 82 57 67 68 84 108 112 93 84 100 98 73 63 45 26 31 63 66 29 21 10 50 31 87 77 118 161
143 146 152 149 146 149 170 215 174 141 162 174 169 171 160 159 138 133 144 136 127 120 122 113 108 118 131 119 110 123 123 123 119 102 83 76 73 67 72 72 65 65 74 67 70 74 80 66 46 24 35 58 53 46 33 18 29 41 28 29 132 219
144 163 162 151 155 168 185 187 154 152 169 169 174 163 157 157 136 136 144 122 123 123 111 114 125 127 124 139 156 123 100 85 77 83 86 101 110 83 86 96 85 77 78 76 76 70 64 67 50 29 35 65 72 48 54 42 21 14 2 12 34 21